Weather in Banha

Egypt     30°27′20″N   31°10′40″E
temp.,
°C
wind,
m/s
gust,
m/s
humid.,
%
clouds,
%
prec.,
mm/h
press.,
hPa
HPBL,
m
26 june, sun
sun2623:00+23nnw36660 0.0 1011146
02:00+21nnw24770 0.0 101183
05:00+20wnw22790 0.0 101121
08:00+27nw33460 0.0 1011782
11:00+34nnw45210 0.0 10101727
14:00+39n67140 0.0 10082645
17:00+35n88220 0.0 10091554
20:00+27n59410 0.0 1010297
27 june, mon
mon2723:00+24nw24590 0.0 1011108
02:00+23nw22710 0.0 101045
05:00+22wnw23740 0.0 101053
08:00+29nw45450 0.0 1011881
11:00+36nw57220 0.0 10092227
14:00+38nw88190 0.0 10072655
17:00+35nw88210 0.0 10082088
20:00+27nw59450 0.0 1009315
28 june, tue
tue2823:00+23wnw37740 0.0 1010229
02:00+21w24830 0.0 100896
05:00+20wnw23860 0.0 100863
08:00+27wnw23540 0.0 1008786
11:00+34wnw34270 0.0 10071900
14:00+38wnw44170 0.0 10053066
17:00+37nw85210 0.0 10052239
20:00+28nnw58480 0.0 1008387
29 june, wed
wed2923:00+24nw35770 0.0 1009168
02:00+22wnw24890 0.0 1008100
05:00+21wnw22920 0.0 100840
08:00+27wnw22570 0.0 1008751
11:00+34w32270 0.0 10071813
14:00+38w53180 0.0 10052856
17:00+36nnw862510 0.0 10052216
20:00+27n59510 0.0 1007336
30 june, thu
thu3023:00+24n24650 0.0 1008121
02:00+23nnw22730 0.0 100726
05:00+22nnw22790 0.0 100716
08:00+28nw22500 0.0 1008728
11:00+34nw22300 0.0 10071899
14:00+38nw33210 0.0 10053079
17:00+37n862427 0.0 10052142
20:00+27n59470 0.0 1008340